Aérodrome :
LOGIN :

S'inscrire | Disclaimer

   EN    FR    IT 

 










Légende :    VFR   VFR Marginal   IFR   IFR Intensif   IFR Très Intensif
Visi : 
Plafond : 
>= 8 km
>= 3000ft
5 à 8 km
1000 à 3000 ft
1500m à 5 km
500 à 1000 ft
800 à 1500m
200 à 500 ft
< 800m
< 200 ft
Symboles :   Orages  Brouillard  Fortes neiges  Fortes précipitations  Vent > 20 kt
SIGMETs :   Divers  Orages  Givrage  Turbulence  Onde Orograph.  Cendres Volcan.






- Altitude de l'aérodrome : 313 ft


LFQA - Reims-Prunay

DERNIER METAR :
  • 050700Z AUTO 24010KT 210V270 9999 BKN017 OVC023 20/16 Q1017

METARs EXPIRÉS :
  • 050630Z AUTO 24010KT 210V280 9999 BKN014 OVC020 19/16 Q1016
  • 050600Z AUTO 24009KT 210V270 9999 BKN014 OVC021 19/16 Q1016
  • 050530Z AUTO 24007KT 9999 OVC015 19/17 Q1016
  • 050500Z AUTO 24008KT 9999 BKN017 OVC025 19/17 Q1016
  • 050430Z AUTO 24010KT 220V280 9999 BKN016 OVC023 19/16 Q1016

TAF N/A



MET'MAP, la Météo Aéronautique d'un coup d'oeil ! - Copyright ORBIFLY Décembre 2007 - Disclaimer

ORBIFLY MET'MAP TEAM :

Programmation & Développement : Alexandra Zaïnal
Sur une idée originale de : Baudouin d'Aumeries
Assistance à la programmation : Marc-Olivier Méhu
Soutien technique & logistique : Manuel Goepfert

Contact : metmap@orbifly.com




SOURCES & CREDITS :

   NOAA